[[{"header":{"parameterUnit":"m.s-1","parameterCategory":1,"la1":30.2991,"la2":30.254,"lo1":-89.0895,"lo2":-89.0444,"dy":0.0017,"dx":0.0017,"nx":28,"ny":28,"refTime":"2025-11-27T09:00:00:Z","depth":0,"parameterNumber":2,"parameterNumberName":"U-component_of_WINDS"},"data":[0,0,0,0,0,0,0,0,0,0,0,0,0,0,0,0,0,0,0,0,0,0,0,0,0,0,0,0,0,0,0,0,0,0,0,0,0,0,0,0,0,0,0,0,0,0,0,0,0,0,0,0,0,0,0,0,0,0,-3.2317,-3.2317,0,-3.2315,-3.2315,-3.2315,-3.2242,-3.224,-3.2238,-3.2236,-3.2235,-3.2237,-3.2238,0,0,0,0,0,0,0,0,0,0,0,0,0,-3.2257,-3.2259,-3.2317,-3.2317,-3.2317,-3.2315,-3.2315,-3.2315,-3.2242,-3.224,-3.2238,-3.2236,-3.2234,-3.2236,-3.2238,0,0,0,0,0,0,0,0,0,0,0,0,0,-3.2272,-3.2259,-3.2317,-3.228,-3.2277,-3.2315,-3.2315,-3.2315,-3.2243,-3.224,-3.2237,-3.2234,-3.2234,-3.2236,-3.2239,-3.2312,0,0,-3.2247,-3.2248,0,0,0,0,0,0,0,0,-3.2272,-3.2275,-3.2286,-3.2283,-3.2279,-3.2276,-3.2293,-3.2314,-3.2244,-3.2256,-3.2236,-3.2233,-3.2251,-3.2252,-3.2258,-3.2312,-3.2311,-3.2247,-3.2248,-3.225,-3.225,0,0,0,0,0,0,0,-3.2271,-3.2274,-3.2316,-3.2286,-3.2282,-3.2264,-3.2263,-3.2297,-3.2269,-3.2255,-3.2249,-3.225,-3.2249,-3.2255,-3.2257,-3.2311,-3.2247,-3.2249,-3.2251,-3.2252,-3.2425,-3.2428,0,0,0,0,0,0,-3.2275,-3.2274,-3.2316,-3.2316,-3.2268,-3.2267,-3.2266,-3.228,-3.2269,-3.2264,-3.2252,-3.2247,-3.2252,-3.2254,-3.2257,-3.2342,-3.225,-3.2252,-3.2253,-3.2422,-3.2426,-3.2429,0,0,0,0,0,0,-3.2274,-3.2279,-3.2316,-3.2293,-3.2297,-3.2271,-3.2287,-3.2281,-3.2288,-3.2267,-3.2262,-3.2265,-3.225,-3.2253,-3.2299,-3.2341,-3.2253,-3.2256,-3.2418,-3.2423,-3.2427,-3.2512,0,0,0,0,0,0,-3.2272,-3.2279,-3.2307,-3.2295,-3.2298,-3.2358,-3.229,-3.2283,-3.2293,-3.2285,-3.2277,-3.2273,-3.2248,-3.2295,-3.2301,-3.2343,-3.2258,-3.2415,-3.2421,-3.2426,-3.2505,-3.2519,-3.253,0,0,0,0,0,-3.227,-3.233,-3.2308,-3.2314,-3.2332,-3.2361,-3.2363,-3.2333,-3.2296,-3.2324,-3.231,-3.2273,-3.2335,-3.23,-3.2307,-3.2349,-3.2412,-3.2419,-3.2426,-3.25,-3.2516,-3.253,0,0,0,0,0,0,-3.2348,-3.2328,-3.2303,-3.2362,-3.2363,-3.2348,-3.2382,-3.2351,-3.2364,-3.2356,-3.2318,-3.2317,-3.2369,-3.2363,-3.2325,-3.2419,-3.2367,-3.2375,-3.2421,-3.2437,-3.2449,-3.2449,-3.226,0,0,0,0,0,-3.2372,-3.2397,-3.2378,-3.2431,-3.2433,-3.2408,-3.2419,-3.2396,-3.2396,-3.2397,-3.2386,-3.2388,-3.2408,-3.2422,-3.2439,-3.2504,-3.2501,-3.2536,-3.2549,-3.2559,-3.2567,-3.2602,-3.2617,-3.2452,-3.2452,-3.2451,0,0,-3.2422,-3.2414,-3.2432,-3.2447,-3.2445,-3.2472,-3.2409,-3.244,-3.2459,-3.2401,-3.2444,-3.2436,-3.2436,-3.2492,-3.2516,-3.2489,-3.2612,-3.2568,-3.2577,-3.2579,-3.261,-3.2626,-3.264,-3.2456,-3.2455,-3.2455,0,0,-3.2526,-3.2522,-3.2566,-3.2566,-3.2565,-3.2548,-3.2558,-3.2548,-3.2541,-3.2583,-3.254,-3.2562,-3.2597,-3.2599,-3.2604,-3.2709,-3.2676,-3.2716,-3.2781,-3.2815,-3.2828,-3.284,-3.2878,-3.2892,-3.2723,-3.2724,-3.2724,0,-3.2588,-3.2626,-3.2593,-3.2627,-3.2635,-3.2583,-3.2627,-3.2629,-3.2634,-3.264,-3.261,-3.2653,-3.2649,-3.2704,-3.273,-3.2736,-3.2747,-3.2717,-3.2829,-3.284,-3.285,-3.2886,-3.2901,-3.2728,-3.2728,-3.2727,-3.2727,0,-3.2703,-3.273,-3.2766,-3.2772,-3.2783,-3.2822,-3.2795,-3.2811,-3.2786,-3.2772,-3.2816,-3.2809,-3.2824,-3.2835,-3.2812,-3.2888,-3.2871,-3.2836,-3.2782,-3.2872,-3.2905,-3.2918,-3.2735,-3.2734,-3.2732,-3.2731,0,0,-3.2857,-3.2843,-3.2857,-3.2859,-3.2854,-3.2874,-3.2911,-3.2925,-3.294,-3.2945,-3.2975,-3.3005,-3.2972,-3.2979,-3.2955,-3.2985,-3.3069,-3.2945,-3.2945,-3.2969,-3.3152,-3.3179,-3.3196,-3.3046,-3.3049,-3.3051,-3.3152,0,-3.2958,-3.302,-3.2991,-3.3056,-3.3081,-3.3032,-3.3064,-3.3065,-3.3052,-3.3072,-3.3058,-3.308,-3.3035,-3.3039,-3.3066,-3.3053,-3.3105,-3.3045,-3.3074,-3.3076,-3.3076,-3.3213,-3.3242,-3.3338,-3.3165,-3.3167,-3.3169,0,-3.3084,-3.3094,-3.3162,-3.3153,-3.3162,-3.3191,-3.3202,-3.3221,-3.3221,-3.321,-3.3217,-3.3186,-3.3222,-3.3168,-3.3217,-3.3176,-3.3187,-3.3182,-3.3185,-3.3187,-3.3128,-3.3219,-3.3368,-3.3383,-3.3189,-3.3187,-3.3186,0,-3.319,-3.3221,-3.3265,-3.3269,-3.3258,-3.328,-3.3277,-3.3273,-3.3284,-3.3294,-3.33,-3.3314,-3.3322,-3.3333,-3.3307,-3.327,-3.3359,-3.3303,-3.3351,-3.3352,-3.3373,-3.3372,-3.3526,-3.3379,-3.3378,-3.3378,-3.3378,0,-3.3307,-3.335,-3.3313,-3.3341,-3.3388,-3.3354,-3.3402,-3.3393,-3.3391,-3.3416,-3.3374,-3.3399,-3.3363,-3.3384,-3.3363,-3.3407,-3.341,-3.3403,-3.3397,-3.3407,-3.3408,-3.3413,-3.3406,-3.3382,-3.3381,-3.338,-3.338,0,-3.3434,-3.341,-3.3456,-3.3442,-3.344,-3.3475,-3.3464,-3.3489,-3.3473,-3.3506,-3.3511,-3.3488,-3.351,-3.3485,-3.3506,-3.3492,-3.3551,-3.3535,-3.3551,-3.3547,-3.3597,-3.3593,-3.376,-3.378,-3.362,-3.3621,-3.3623,0,-3.351,-3.3542,-3.3532,-3.3546,-3.3545,-3.3568,-3.3579,-3.3546,-3.3559,-3.3561,-3.3586,-3.3605,-3.3618,-3.3657,-3.3641,-3.3657,-3.3641,-3.3699,-3.3643,-3.3653,-3.3643,-3.3642,-3.3645,-3.3711,-3.3712,-3.3714,-3.3715,0,-3.3648,-3.3635,-3.3651,-3.3665,-3.3678,-3.3687,-3.3692,-3.3706,-3.3672,-3.3689,-3.3711,-3.3722,-3.3743,-3.3763,-3.3774,-3.377,-3.3738,-3.3733,-3.3745,-3.3756,-3.3764,-3.3761,-3.3583,-3.3729,-3.3728,-3.3727,-3.3726,-3.3726,-3.3752,-3.3779,-3.3776,-3.3796,-3.3797,-3.3803,-3.3826,-3.3813,-3.3831,-3.3846,-3.3826,-3.3854,-3.3852,-3.3864,-3.3864,-3.3886,-3.3861,-3.3879,-3.3883,-3.3888,-3.3896,-3.376,-3.3888,-3.3887,-3.3887,-3.3887,-3.3886,0,-3.3888,-3.3884,-3.3903,-3.3912,-3.3928,-3.3895,-3.39,-3.3915,-3.394,-3.3942,-3.3956,-3.3982,-3.4001,-3.3987,-3.4003,-3.4023,-3.4008,-3.4028,-3.4026,-3.4026,-3.3917,-3.3905,-3.4039,-3.4039,-3.4039,-3.4039,-3.4039,-3.4039,-3.3961,-3.4005,-3.3991,-3.4035,-3.403,-3.4057,-3.4062,-3.4068,-3.4069,-3.41,-3.4115,-3.4106,-3.4101,-3.4116,-3.4132,-3.4127,-3.4135,-3.4161,-3.4151,-3.4049,-3.4034,-3.402,-3.4008,-3.4163,-3.4163,-3.4259,-3.426,-3.4261]},{"header":{"parameterUnit":"m.s-1","parameterCategory":1,"la1":30.2991,"la2":30.254,"lo1":-89.0895,"lo2":-89.0444,"dy":0.0017,"dx":0.0017,"nx":28,"ny":28,"refTime":"2025-11-27T09:00:00:Z","depth":0,"parameterNumber":3,"parameterNumberName":"V-component_of_WINDS"},"data":[0,0,0,0,0,0,0,0,0,0,0,0,0,0,0,0,0,0,0,0,0,0,0,0,0,0,0,0,0,0,0,0,0,0,0,0,0,0,0,0,0,0,0,0,0,0,0,0,0,0,0,0,0,0,0,0,0,0,-4.6566,-4.6567,0,-4.6663,-4.6664,-4.6665,-4.6655,-4.6653,-4.6652,-4.665,-4.6747,-4.675,-4.6754,0,0,0,0,0,0,0,0,0,0,0,0,0,-4.6369,-4.6373,-4.6566,-4.6567,-4.6568,-4.6662,-4.6664,-4.6665,-4.6655,-4.6653,-4.6651,-4.6649,-4.6745,-4.675,-4.6755,0,0,0,0,0,0,0,0,0,0,0,0,0,-4.6459,-4.6374,-4.6565,-4.6574,-4.6576,-4.6662,-4.6664,-4.6665,-4.6655,-4.6653,-4.6651,-4.6649,-4.6744,-4.675,-4.6755,-4.6838,0,0,-4.6774,-4.6776,0,0,0,0,0,0,0,0,-4.6454,-4.6466,-4.6572,-4.6574,-4.6576,-4.6644,-4.663,-4.6723,-4.6656,-4.6625,-4.665,-4.6647,-4.6714,-4.6722,-4.6746,-4.6842,-4.6846,-4.6774,-4.6778,-4.678,-4.6782,0,0,0,0,0,0,0,-4.6448,-4.6462,-4.6604,-4.6573,-4.6576,-4.6573,-4.6583,-4.6647,-4.6681,-4.6628,-4.6627,-4.6639,-4.6715,-4.674,-4.6748,-4.6848,-4.6774,-4.6779,-4.6783,-4.6785,-4.7017,-4.702,0,0,0,0,0,0,-4.644,-4.6457,-4.6601,-4.6607,-4.6508,-4.6578,-4.659,-4.6625,-4.668,-4.6687,-4.6641,-4.6638,-4.6731,-4.6741,-4.6751,-4.6852,-4.678,-4.6786,-4.6789,-4.7015,-4.7018,-4.7021,0,0,0,0,0,0,-4.6436,-4.6453,-4.6597,-4.6532,-4.655,-4.6584,-4.6623,-4.6628,-4.6653,-4.669,-4.6696,-4.666,-4.6729,-4.6743,-4.6817,-4.6855,-4.6789,-4.6794,-4.7012,-4.7016,-4.7019,-4.7053,0,0,0,0,0,0,-4.643,-4.6451,-4.6484,-4.6533,-4.6554,-4.6662,-4.6626,-4.6631,-4.6663,-4.6661,-4.671,-4.6716,-4.6729,-4.6808,-4.6822,-4.6862,-4.6799,-4.7008,-4.7013,-4.7018,-4.7048,-4.7057,-4.7065,0,0,0,0,0,-4.6423,-4.6488,-4.6485,-4.6503,-4.6595,-4.6664,-4.6676,-4.6689,-4.6666,-4.6699,-4.6723,-4.6715,-4.6848,-4.6815,-4.6832,-4.6874,-4.7006,-4.7012,-4.7018,-4.7045,-4.7056,-4.7065,0,0,0,0,0,0,-4.6442,-4.6495,-4.6492,-4.6575,-4.6615,-4.6662,-4.6703,-4.67,-4.6747,-4.6742,-4.6757,-4.6768,-4.6843,-4.6865,-4.6828,-4.6956,-4.6924,-4.6933,-4.6939,-4.6949,-4.6958,-4.6951,-4.6804,0,0,0,0,0,-4.6456,-4.6508,-4.6552,-4.6621,-4.6641,-4.6669,-4.67,-4.6707,-4.6748,-4.6765,-4.6794,-4.6834,-4.6885,-4.6919,-4.6967,-4.7052,-4.7062,-4.7088,-4.7097,-4.7103,-4.7111,-4.7158,-4.717,-4.704,-4.704,-4.704,0,0,-4.6485,-4.652,-4.6553,-4.6626,-4.6658,-4.6711,-4.6683,-4.6741,-4.6781,-4.6773,-4.6845,-4.6868,-4.6914,-4.6993,-4.703,-4.7015,-4.715,-4.7111,-4.7116,-4.712,-4.7165,-4.7177,-4.7188,-4.7044,-4.7043,-4.7042,0,0,-4.6565,-4.6598,-4.6659,-4.6692,-4.6741,-4.6759,-4.6774,-4.6821,-4.6837,-4.6909,-4.6905,-4.6952,-4.7039,-4.7072,-4.71,-4.7194,-4.7188,-4.7209,-4.7252,-4.7297,-4.7308,-4.7317,-4.735,-4.7362,-4.7217,-4.7217,-4.7217,0,-4.6595,-4.6677,-4.6691,-4.675,-4.6782,-4.6779,-4.6841,-4.6872,-4.6934,-4.6956,-4.6938,-4.7048,-4.7078,-4.7166,-4.7189,-4.7211,-4.7228,-4.7204,-4.7305,-4.7315,-4.7323,-4.7355,-4.7368,-4.7219,-4.7219,-4.7219,-4.7219,0,-4.6711,-4.6767,-4.6811,-4.6872,-4.6909,-4.6969,-4.6992,-4.7028,-4.7032,-4.7052,-4.7126,-4.7162,-4.7218,-4.724,-4.7244,-4.7328,-4.7317,-4.7302,-4.727,-4.7338,-4.7368,-4.7381,-4.7223,-4.7222,-4.7221,-4.7221,0,0,-4.6806,-4.6875,-4.6891,-4.6919,-4.6972,-4.7016,-4.7076,-4.7132,-4.7162,-4.7205,-4.7255,-4.733,-4.7317,-4.7349,-4.7356,-4.7396,-4.7468,-4.7376,-4.7377,-4.7392,-4.7563,-4.7574,-4.7588,-4.7464,-4.7467,-4.7469,-4.7559,0,-4.6892,-4.6999,-4.7014,-4.7108,-4.716,-4.7158,-4.721,-4.7249,-4.7269,-4.7315,-4.7337,-4.739,-4.7368,-4.7388,-4.7427,-4.7451,-4.7502,-4.7444,-4.7511,-4.7513,-4.75,-4.7604,-4.7616,-4.77,-4.7571,-4.7573,-4.7575,0,-4.7006,-4.7054,-4.7154,-4.7201,-4.7224,-4.727,-4.7323,-4.7368,-4.7411,-4.7423,-4.7459,-4.7462,-4.7523,-4.7488,-4.7573,-4.7533,-4.7561,-4.7577,-4.7581,-4.7587,-4.7548,-4.7614,-4.7727,-4.7739,-4.7594,-4.7592,-4.7591,0,-4.7066,-4.7154,-4.7226,-4.725,-4.7307,-4.734,-4.7365,-4.7406,-4.7439,-4.7485,-4.7506,-4.7558,-4.7587,-4.7627,-4.7643,-4.7617,-4.7727,-4.7694,-4.7738,-4.7738,-4.7762,-4.776,-4.7881,-4.7779,-4.7779,-4.7779,-4.7779,0,-4.7161,-4.7222,-4.7254,-4.7298,-4.7366,-4.7382,-4.7449,-4.7473,-4.751,-4.7558,-4.7558,-4.7603,-4.7623,-4.767,-4.7684,-4.7752,-4.7764,-4.7775,-4.7778,-4.7776,-4.7774,-4.7794,-4.7789,-4.7782,-4.7782,-4.7781,-4.778,0,-4.7239,-4.7263,-4.734,-4.7388,-4.7402,-4.745,-4.749,-4.7533,-4.7552,-4.7613,-4.7628,-4.7659,-4.7715,-4.7736,-4.7804,-4.7813,-4.7892,-4.789,-4.7878,-4.7878,-4.7922,-4.7918,-4.806,-4.808,-4.7965,-4.7966,-4.7967,0,-4.7298,-4.7345,-4.7399,-4.7431,-4.7458,-4.751,-4.7545,-4.7562,-4.7597,-4.7651,-4.7686,-4.7743,-4.7789,-4.7878,-4.7906,-4.7958,-4.7958,-4.8004,-4.7965,-4.7961,-4.7959,-4.7956,-4.7961,-4.8011,-4.8012,-4.8013,-4.8014,0,-4.74,-4.741,-4.746,-4.7514,-4.7555,-4.7598,-4.7639,-4.7666,-4.769,-4.7729,-4.7787,-4.7823,-4.7893,-4.7949,-4.8003,-4.8027,-4.8025,-4.8026,-4.8039,-4.8037,-4.8028,-4.8034,-4.7898,-4.8023,-4.8022,-4.8021,-4.8021,-4.802,-4.7471,-4.7513,-4.7558,-4.7613,-4.7646,-4.7686,-4.7728,-4.7753,-4.7802,-4.7862,-4.7869,-4.7931,-4.7973,-4.8045,-4.8073,-4.8121,-4.8109,-4.8128,-4.8132,-4.8137,-4.814,-4.802,-4.8131,-4.8131,-4.8131,-4.813,-4.813,0,-4.7574,-4.7602,-4.7653,-4.7712,-4.7756,-4.7751,-4.7796,-4.7833,-4.7888,-4.7928,-4.7974,-4.8041,-4.8095,-4.8127,-4.8182,-4.8214,-4.8215,-4.8228,-4.8226,-4.8232,-4.8148,-4.8132,-4.8227,-4.8227,-4.8227,-4.8227,-4.8227,-4.8227,-4.7632,-4.7704,-4.7719,-4.7806,-4.7834,-4.7896,-4.7923,-4.7959,-4.7991,-4.8066,-4.8112,-4.8133,-4.817,-4.8227,-4.8276,-4.8284,-4.8304,-4.8319,-4.8326,-4.8247,-4.8237,-4.8228,-4.8212,-4.8323,-4.8323,-4.8405,-4.8406,-4.8407]}]]